Tracking 18957 objects as of 22-Jan-2018
HD Live streaming from Space Station
objects crossing your sky now

RESURS O1 DEB

Track RESURS O1 DEB now!
10-day predictions


NORAD ID: 23346
Int'l Code: 1994-074E
Perigee: 657.4 km
Apogee: 917.3 km
Inclination: 98.4 °
Period: 100.5 minutes
Semi major axis: 7158 km
RCS: 0.0836 m2 (small)
Launch date: November 4, 1994
Source: Commonwealth of Independent States (former USSR) (CIS)
Launch site: TYURATAM MISSILE AND SPACE COMPLEX (TTMTR)

Note: This is SATELLITE DEBRIS
aabbcc
Your satellite tracking list
Your tracking list is empty




NASA's NSSDC Master Catalog

Two Line Element Set (TLE):
1 23346U 94074E   18021.78097992 +.00000058 +00000-0 +31885-4 0  9997
2 23346 098.3567 145.5425 0181560 212.6609 146.3244 14.33448071211161
Source of the keplerian elements: AFSPC